Content
SEND FEEDBACK

Daily
Averages
Monthly
Summary
United States of America

FORT LEE, NEW JERSEY


Home > North America > United States > New Jersey
Elevation: 128 feet     Latitude: 40 46N     Longitude: 073 58W

WEATHER
 
SELECT A DAY
Number of Records: 152,235;   Date Range: 11/1/95 - 11/25/14
 
SHARE

PRINT THIS DATA

[ ← Previous Day ]
WEATHER ALMANAC - MARCH 28, 2013
[ Next Day → ]
[ °C ]   °F
Weather ElementAverageHighLow
Temperature43.9 °F48.9 °F (12:51 pm)37.9 °F (4:51 am)
Dewpoint27.8 °F30.9 °F (4:51 pm)25 °F (10:51 am)
Humidity54 %68 % (5:51 am)41 % (12:51 pm)
Barometer30.01 in30.11 in (11:51 pm)29.96 in (2:51 am)
Wind Speed6 mph10.4 mph (5:51 pm)
Wind Gust21.9 mph (9:51 pm)
Weather ElementAverage
Visibility10 mi
Wind DirectionENE (83 °)

Weather ElementTotal
Precipitation---
Heating Degree Days21.6 (Base 65)
Averaged from 23 records on March 28, 2013
WEATHER CONDITIONS BREAKOUT
WIND DIRECTION BREAKOUT
WEATHER BY HOUR - MARCH 28, 2013
[ °C ]   °F
Local TimeTemperatureDewpointHumidityBarometerVisibilityWind DirectionWind SpeedGust SpeedPrecipitationEventsConditions
1:51 AM39.0 °F28.0 °F65 %29.97 in10.0 miVariable3.5 mphClear
2:51 AM39.0 °F28.0 °F65 %29.96 in10.0 miVariable4.6 mphClear
3:51 AM39.0 °F28.0 °F65 %29.96 in10.0 miCalmClear
4:51 AM37.9 °F27.0 °F65 %29.96 in10.0 miVariable4.6 mphClear
5:51 AM37.9 °F28.0 °F68 %29.96 in10.0 miNorthClear
6:51 AM37.9 °F28.0 °F68 %29.97 in10.0 miVariable3.5 mphClear
7:51 AM37.9 °F28.0 °F68 %29.99 in10.0 miNW (310°)6.9 mphClear
8:51 AM41.0 °F27.0 °F57 %29.99 in10.0 miVariable6.9 mphClear
9:51 AM44.1 °F27.0 °F51 %29.99 in10.0 miNW (310°)9.2 mphClear
10:51 AM46.9 °F25.0 °F42 %30.00 in10.0 miVariable6.9 mphMostly Cloudy
11:51 AM46.0 °F26.1 °F46 %30.00 in10.0 miVariable4.6 mphOvercast
12:51 PM48.9 °F26.1 °F41 %30.00 in10.0 miNE (50°)8.1 mphMostly Cloudy
1:51 PM48.0 °F28.0 °F46 %30.00 in10.0 miVariable3.5 mphMostly Cloudy
2:51 PM48.0 °F28.0 °F46 %30.00 in10.0 miVariable6.9 mphOvercast
3:51 PM48.9 °F28.0 °F44 %30.00 in10.0 miVariable5.8 mphOvercast
4:51 PM46.0 °F30.9 °F56 %30.01 in10.0 miWNW (300°)5.8 mph0.00 inOvercast
5:51 PM48.0 °F28.9 °F48 %30.02 in10.0 miNorth (10°)10.4 mph0.00 inOvercast
6:51 PM46.9 °F28.9 °F50 %30.04 in10.0 miNorth0.00 inOvercast
7:51 PM46.9 °F28.0 °F48 %30.06 in10.0 miVariable4.6 mphOvercast
8:51 PM46.9 °F28.0 °F48 %30.08 in10.0 miVariable5.8 mphOvercast
9:51 PM46.0 °F28.0 °F50 %30.10 in10.0 miNW (310°)8.1 mph21.9 mphScattered Clouds
10:51 PM45.0 °F28.0 °F52 %30.10 in10.0 miNW (310°)9.2 mphOvercast
11:51 PM44.1 °F28.0 °F53 %30.11 in10.0 miNW (310°)6.9 mphMostly Cloudy
Hourly data recorded from KNYC, located miles away from Fort Lee, New Jersey







STORIES FROM OUR PARTNERS